Weather History for Athens, TX

Change the Weather History Date:

Friday, March 22, 2013

  Actual Average (KTYR) Record (KTYR)
Temperature  
Mean Temperature 68 °F 58 °F  
Max Temperature 75 °F 68 °F 90 °F (1995)
Min Temperature 62 °F 48 °F 26 °F (1915)
Degree Days  
Heating Degree Days 0 8  
Month to date heating degree days 211  
Since 1 July heating degree days 2103  
Cooling Degree Days 4 1  
Month to date cooling degree days 10  
Year to date cooling degree days 22  
Growing Degree Days 18 (Base 50)    
Moisture  
Dew Point 59 °F    
Average Humidity 78    
Maximum Humidity 94    
Minimum Humidity 57    
Precipitation  
Precipitation 0.00 in 0.14 in 1.57 in (1912)
Month to date precipitation 3.03  
Year to date precipitation 9.90  
Snow  
Snow 0.00 in - - ()
Month to date snowfall  
Since 1 July snowfall  
Snow Depth -    
Sea Level Pressure  
Sea Level Pressure 29.67 in    
Wind  
Wind Speed 10 mph (South)    
Max Wind Speed 17 mph    
Max Gust Speed 24 mph    
Visibility 10 miles    
Events      
T = Trace of Precipitation, MM = Missing Value Source: NWS Daily Summary

Daily Weather History Graph

Daily Weather History Graph

Search for Another Location

Airport:

Trip Planner

Search our weather history database for the weather conditions in past years. The results will help you decide how hot, cold, wet, or windy it might be!

Date:

Astronomy

Mar. 22, 2013 Rise Set
Actual Time 7:24 AM CDT 7:36 PM CDT
Civil Twilight 6:59 AM CDT 8:00 PM CDT
Nautical Twilight 6:31 AM CDT 8:29 PM CDT
Astronomical Twilight 6:02 AM CDT 8:58 PM CDT
Moon 3:18 PM CDT (3/22) 4:10 AM CDT (3/22)
Length of Visible Light 13h 01m
Length of Day
12h 12m
Waxing Gibbous, 77% of the Moon is Illuminated
Mar 22
Waxing Gibbous
Mar 27
Full
Apr 2
Last Quarter
Apr 10
New
Apr 18
First Quarter

Hourly Weather History & Observations

Time (CDT) Temp. Dew Point Humidity Pressure Visibility Wind Dir Wind Speed Gust Speed Precip Events Conditions
12:15 AM 62.6 °F 53.6 °F 72% 29.65 in 10.0 mi South 17.3 mph 23.0 mph N/A   Overcast
12:35 AM 62.6 °F 55.4 °F 77% 29.65 in 10.0 mi South 15.0 mph 20.7 mph N/A   Overcast
12:55 AM 62.6 °F 55.4 °F 77% 29.65 in 10.0 mi South 15.0 mph 24.2 mph N/A   Overcast
1:15 AM 62.6 °F 55.4 °F 77% 29.65 in 10.0 mi South 10.4 mph 21.9 mph N/A   Overcast
1:35 AM 62.6 °F 55.4 °F 77% 29.64 in 10.0 mi South 15.0 mph 19.6 mph N/A   Overcast
1:55 AM 62.6 °F 55.4 °F 77% 29.64 in 10.0 mi South 16.1 mph 21.9 mph N/A   Overcast
2:15 AM 62.6 °F 57.2 °F 82% 29.64 in 10.0 mi South 13.8 mph - N/A   Overcast
2:35 AM 62.6 °F 57.2 °F 82% 29.64 in 10.0 mi South 11.5 mph 18.4 mph N/A   Overcast
2:55 AM 62.6 °F 57.2 °F 82% 29.64 in 10.0 mi South 8.1 mph 17.3 mph N/A   Overcast
3:15 AM 62.6 °F 57.2 °F 82% 29.63 in 10.0 mi South 9.2 mph 16.1 mph N/A   Overcast
3:35 AM 62.6 °F 57.2 °F 82% 29.63 in 10.0 mi South 5.8 mph - N/A   Overcast
3:55 AM 62.6 °F 57.2 °F 82% 29.63 in 10.0 mi South 5.8 mph - N/A   Overcast
4:15 AM 62.6 °F 57.2 °F 82% 29.61 in 10.0 mi South 10.4 mph - N/A   Overcast
4:35 AM 62.6 °F 57.2 °F 82% 29.62 in 10.0 mi South 6.9 mph - N/A   Overcast
4:55 AM 62.6 °F 59.0 °F 88% 29.62 in 10.0 mi South 6.9 mph - N/A   Overcast
5:15 AM 62.6 °F 59.0 °F 88% 29.62 in 10.0 mi South 5.8 mph - N/A   Overcast
5:35 AM 62.6 °F 59.0 °F 88% 29.63 in 10.0 mi SSE 4.6 mph - N/A   Overcast
5:55 AM 62.6 °F 59.0 °F 88% 29.65 in 10.0 mi Calm Calm - N/A   Overcast
6:15 AM 62.6 °F 59.0 °F 88% 29.64 in 10.0 mi SSE 8.1 mph - N/A   Overcast
6:35 AM 62.6 °F 59.0 °F 88% 29.64 in 10.0 mi SSE 8.1 mph - N/A   Overcast
6:55 AM 62.6 °F 59.0 °F 88% 29.64 in 10.0 mi SSE 6.9 mph - N/A   Overcast
7:15 AM 62.6 °F 59.0 °F 88% 29.67 in 10.0 mi Calm Calm - N/A   Overcast
7:35 AM 62.6 °F 59.0 °F 88% 29.67 in 10.0 mi Calm Calm - N/A   Overcast
7:55 AM 62.6 °F 59.0 °F 88% 29.68 in 10.0 mi SSE 3.5 mph - N/A   Overcast
8:15 AM 62.6 °F 59.0 °F 88% 29.69 in 10.0 mi Calm Calm - N/A   Overcast
8:35 AM 62.6 °F 60.8 °F 94% 29.70 in 10.0 mi SSE 4.6 mph - N/A   Overcast
8:55 AM 62.6 °F 60.8 °F 94% 29.70 in 10.0 mi South 4.6 mph - N/A   Overcast
9:15 AM 64.4 °F 60.8 °F 88% 29.71 in 10.0 mi South 5.8 mph - N/A   Overcast
9:35 AM 64.4 °F 60.8 °F 88% 29.71 in 10.0 mi SSE 4.6 mph - N/A   Overcast
9:55 AM 68.0 °F 60.8 °F 78% 29.71 in 10.0 mi South 6.9 mph - N/A   Overcast
10:15 AM 68.0 °F 60.8 °F 78% 29.71 in 10.0 mi South 8.1 mph - N/A   Overcast
10:35 AM 68.0 °F 60.8 °F 78% 29.72 in 10.0 mi South 4.6 mph - N/A   Overcast
10:55 AM 68.0 °F 62.6 °F 83% 29.71 in 10.0 mi SSE 4.6 mph - N/A   Overcast
11:15 AM 69.8 °F 62.6 °F 78% 29.71 in 10.0 mi South 4.6 mph - N/A   Overcast
11:35 AM 69.8 °F 60.8 °F 73% 29.71 in 10.0 mi SSW 4.6 mph - N/A   Overcast
11:55 AM 71.6 °F 60.8 °F 69% 29.71 in 10.0 mi SSE 11.5 mph - N/A   Mostly Cloudy
12:15 PM 71.6 °F 60.8 °F 69% 29.71 in 10.0 mi SSW 5.8 mph - N/A   Mostly Cloudy
12:35 PM 71.6 °F 60.8 °F 69% 29.70 in 10.0 mi SSE 8.1 mph - N/A   Overcast
12:55 PM 71.6 °F 60.8 °F 69% 29.70 in 10.0 mi South 3.5 mph - N/A   Overcast
1:15 PM 73.4 °F 59.0 °F 61% 29.69 in 10.0 mi SW 4.6 mph - N/A   Overcast
1:35 PM 73.4 °F 59.0 °F 61% 29.68 in 10.0 mi WSW 5.8 mph - N/A   Overcast
1:55 PM 75.2 °F 60.8 °F 61% 29.68 in 10.0 mi WSW 4.6 mph - N/A   Overcast
2:15 PM 73.4 °F 59.0 °F 61% 29.67 in 10.0 mi NW 5.8 mph - N/A   Overcast
2:35 PM 73.4 °F 59.0 °F 61% 29.67 in 10.0 mi WNW 8.1 mph - N/A   Overcast
2:55 PM 73.4 °F 59.0 °F 61% 29.67 in 10.0 mi NW 8.1 mph - N/A   Mostly Cloudy
3:15 PM 71.6 °F 57.2 °F 60% 29.67 in 10.0 mi WNW 5.8 mph - N/A   Overcast
3:35 PM 71.6 °F 55.4 °F 57% 29.67 in 10.0 mi NW 10.4 mph - N/A   Overcast